FW3937 Weather Reports


Display with metric or nautical units.
time (UTC)temp
F
wind
direction
speed
MPH
gust
MPH
rain 1hr
in
rain 24hr
in
rain mn
in
humidity
%
barometer
mb
20260505054107 58 139 2.0 6.0 0.00 0.00 0.00 56 1010.1
20260505053020 58 184 2.0 6.0 0.00 0.00 0.00 55 1010.0
20260505052114 59 127 3.0 5.0 0.00 0.00 0.00 53 1009.8
20260505051027 59 62 2.0 5.0 0.00 0.00 0.00 52 1009.9
20260505041029 61 75 3.0 6.0 0.00 0.00 0.00 44 1009.0
20260505040021 60 216 2.0 5.0 0.00 0.00 0.00 46 1008.9
20260505035035 59 36 2.0 4.0 0.00 0.00 0.00 45 1008.6
20260505034028 60 48 3.0 5.0 0.00 0.00 0.00 44 1008.4
20260505033022 60 52 3.0 4.0 0.00 0.00 0.00 43 1008.1
20260505032055 61 39 3.0 4.0 0.00 0.00 0.00 42 1008.1
20260505031028 62 39 3.0 4.0 0.00 0.00 0.00 41 1007.9
20260505030022 63 48 3.0 4.0 0.00 0.00 0.00 39 1007.9
20260505025057 64 31 1.0 4.0 0.00 0.00 0.00 38 1007.8
20260505024031 65 78 4.0 6.0 0.00 0.00 0.00 37 1007.7
20260505023105 65 62 2.0 3.0 0.00 0.00 0.00 36 1007.7
20260505022058 65 47 2.0 4.0 0.00 0.00 0.00 36 1007.7
20260505020108 65 31 3.0 5.0 0.00 0.00 0.00 36 1007.5
20260505015021 65 44 3.0 5.0 0.00 0.00 0.00 36 1007.4
20260505014035 65 31 4.0 11.0 0.00 0.00 0.00 36 1007.4
20260505013029 65 52 4.0 7.0 0.00 0.00 0.00 36 1007.6
20260505012024 65 37 5.0 10.0 0.00 0.00 0.00 37 1007.7
20260505011018 64 34 5.0 13.0 0.00 0.00 0.00 38 1007.7
20260505010032 64 34 5.0 10.0 0.00 0.00 0.00 37 1007.6
20260505005026 64 44 5.0 11.0 0.00 0.00 0.00 39 1007.7
20260505004100 64 47 7.0 17.0 0.00 0.00 0.00 40 1007.8
20260505003035 63 44 6.0 12.0 0.00 0.00 0.00 41 1007.9
20260505002028 63 57 6.0 16.0 0.00 0.00 0.00 41 1008.2
20260505001022 63 58 5.0 12.0 0.00 0.00 0.00 43 1008.2
20260505000017 63 75 8.0 18.0 0.00 0.00 0.00 43 1008.3
20260504235031 63 53 6.0 12.0 0.00 0.00 0.00 44 1008.4
20260504234025 62 52 9.0 18.0 0.00 0.00 0.00 45 1008.8
20260504233019 62 47 8.0 16.0 0.00 0.00 0.00 44 1008.9
20260504232032 63 38 8.0 18.0 0.00 0.00 0.00 42 1008.9
20260504231026 65 43 6.0 13.0 0.00 0.00 0.00 38 1008.8
20260504230100 64 87 5.0 12.0 0.00 0.00 0.00 39 1008.8
20260504225034 64 93 6.0 14.0 0.00 0.00 0.00 39 1008.9
20260504224028 65 95 5.0 11.0 0.00 0.00 0.00 39 1008.8
20260504223022 64 113 4.0 13.0 0.00 0.00 0.00 41 1008.8
20260504222015 66 130 6.0 15.0 0.00 0.00 0.00 38 1008.7
20260504221029 69 170 4.0 10.0 0.00 0.00 0.00 31 1008.5
20260504220023 71 203 2.0 5.0 0.00 0.00 0.00 28 1008.2
20260504215017 71 279 2.0 7.0 0.00 0.00 0.00 27 1008.2
20260504214031 71 256 2.0 6.0 0.00 0.00 0.00 26 1008.2
20260504213025 72 299 2.0 6.0 0.00 0.00 0.00 27 1008.3
20260504212018 73 280 4.0 10.0 0.00 0.00 0.00 26 1008.3
20260504211031 71 273 4.0 8.0 0.00 0.00 0.00 27 1008.4
20260504210024 73 251 7.0 12.0 0.00 0.00 0.00 26 1008.5
20260504205018 73 299 3.0 6.0 0.00 0.00 0.00 27 1008.6
20260504204112 73 284 5.0 11.0 0.00 0.00 0.00 28 1008.6
20260504203027 72 296 2.0 4.0 0.00 0.00 0.00 28 1008.7
20260504202021 71 321 2.0 6.0 0.00 0.00 0.00 29 1008.9
20260504201035 72 281 1.0 3.0 0.00 0.00 0.00 28 1009.0
20260504200028 72 323 5.0 10.0 0.00 0.00 0.00 27 1009.1
20260504195123 74 323 4.0 8.0 0.00 0.00 0.00 29 1009.1
20260504194055 73 285 3.0 7.0 0.00 0.00 0.00 29 1009.2
20260504193029 72 278 3.0 6.0 0.00 0.00 0.00 28 1009.3
20260504192024 71 283 4.0 7.0 0.00 0.00 0.00 29 1009.4
20260504191017 72 304 5.0 10.0 0.00 0.00 0.00 29 1009.5
20260504190030 72 308 3.0 6.0 0.00 0.00 0.00 29 1009.6
20260504185025 71 287 5.0 10.0 0.00 0.00 0.00 28 1009.7
20260504184020 71 287 4.0 7.0 0.00 0.00 0.00 29 1009.8
20260504183035 72 78 2.0 8.0 0.00 0.00 0.00 29 1009.9
20260504182028 70 341 3.0 6.0 0.00 0.00 0.00 29 1010.1
20260504181027 70 233 3.0 8.0 0.00 0.00 0.00 29 1010.3
20260504180016 70 283 2.0 7.0 0.00 0.00 0.00 30 1010.3
20260504175030 70 273 4.0 6.0 0.00 0.00 0.00 31 1010.5
20260504174105 69 292 2.0 6.0 0.00 0.00 0.00 31 1010.5
20260504173058 69 313 2.0 4.0 0.00 0.00 0.00 32 1010.6
20260504172032 68 235 3.0 6.0 0.00 0.00 0.00 32 1010.8
20260504171106 69 213 2.0 7.0 0.00 0.00 0.00 32 1010.9
20260504151034 63 252 2.0 5.0 0.00 0.00 0.00 37 1011.2
20260504141034 61 47 2.0 4.0 0.00 0.00 0.00 44 1011.3
20260504130111 56 64 3.0 4.0 0.00 0.00 0.00 45 1011.4
20260504081033 58 50 1.0 3.0 0.00 0.00 0.00 31 1010.0
20260504070109 64 24 3.0 5.0 0.00 0.00 0.00 25 1010.2